UFO 11 (USA 174)

Last updated on Jan. 26, 2020, 4:40 a.m. UTC

1 28117U 03057A   20025.64307372 -.00000110  00000-0  00000+0 0  9997
2 28117   5.9060  37.2113 0006554 289.7684 104.5296  1.00271216 59014
UTC
Height (km)
Latitude
Longitude
Inclination
Orbital Period
UTC large
Height (km)
Speed (km/s)
/
Latitude / Longitude
Inclination (degrees)
Orbital Period (minutes)
Azimuth
Elevation
Range (km)
Doppler Factor
iOS Compass Heading
iOS Angle

Next 30 passes for location: Hong Kong

Rise time Rise Azimuth (degrees) Set time Set Azimuth (degrees) Duration Max altitude (degrees)

No matching passes for this satellites